User: anonymous   Login
Location: Unspecified
(0.0000°N, 0.0000°E)
Time: 17:32:37
(UTC+02:00)
Language:

Milstar 3 - Orbit

View from above orbital plane
View from above orbital plane
View from above satellite
View from above satellite

Ground track
Ground track

The orbit data is extracted from the following two-line orbital elements,

1 25724U 99023A   16267.03105512 0.00000000  00000-0  00000-0 0    05
2 25724  28.2236 205.5326 2134299 358.4682   1.5313  9.37446873    08
Epoch (UTC): 23 September 2016 00:44:43
Eccentricity: 0.2134299
inclination: 28.2236°
perigee height: 1095 km
apogee height: 5150 km
right ascension of ascending node: 205.5326°
argument of perigee: 358.4682°
revolutions per day: 9.37446873
mean anomaly at epoch: 1.5313°
orbit number at epoch: 0

The dashed part of the orbit path shows where the satellite is in the earth's shadow,  

DLR